AirNav   Air Wisconsin pilot careers
 
 1626 users online  

43A Montgomery County Airport
Star, North Carolina, USA

GOING TO STAR?


FAA INFORMATION EFFECTIVE 11 OCTOBER 2018

Location

FAA Identifier: 43A
Lat/Long: 35-23-04.7560N / 079-47-24.9435W
35-23.079267N / 079-47.415725W
35.3846544 / -79.7902621
(estimated)
Elevation: 632.4 ft. / 193 m (estimated)
Variation: 06W (1985)
Time zone: UTC -4 (UTC -5 during Standard Time)
Zip code: 27356

Airport Operations

Airport use: Open to the public
Activation date: 07/1965
Control tower: no
ARTCC: WASHINGTON CENTER
FSS: RALEIGH FLIGHT SERVICE STATION
NOTAMs facility: RDU (NOTAM-D service available)
Attendance: UNATTENDED
Wind indicator: lighted
Segmented circle: no
Lights: ACTVT MIRL RY 03/21 AND PAPI RY 3 AND PAPI RY 21 - CTAF.
Beacon: white-green (lighted land airport)
Operates sunset to sunrise.

Airport Communications

CTAF/UNICOM: 122.8
FAYETTEVILLE APPROACH: 127.8
FAYETTEVILLE DEPARTURE: 127.8
WX AWOS-3 at HBI (17 nm N): 119.275 (336-626-7933)
WX AWOS-3 at VUJ (18 nm W): 128.175 (704-986-2097)

Nearby radio navigation aids

VOR radial/distance  VOR name  Freq  Var
SDZr319/14.2SANDHILLS VORTAC111.8003W
LIBr202/27.0LIBERTY VORTAC113.0003W

 
NDB name  Hdg/Dist  Freq  Var  ID
MACKALL331/26.127806WHFF .... ..-. ..-.

Airport Services

Parking: tiedowns
Airframe service: MAJOR
Powerplant service: MAJOR
Bottled oxygen: NONE
Bulk oxygen: NONE

Runway Information

Runway 3/21

Dimensions: 4002 x 75 ft. / 1220 x 23 m
Surface: asphalt, in excellent condition
Weight bearing capacity: 
Single wheel: 20.0
Runway edge lights: medium intensity
Gradient: NE
RUNWAY 3  RUNWAY 21
Latitude: 35-22.772160N35-23.386303N
Longitude: 079-47.563150W079-47.268632W
Elevation: 572.6 ft.632.4 ft.
Gradient: 1.5% UP1.5%
Traffic pattern: leftleft
Runway heading: 027 magnetic, 021 true207 magnetic, 201 true
Displaced threshold: no460 ft.
Markings: nonprecision, in good conditionnonprecision, in good condition
Visual slope indicator: 2-light PAPI on left (3.50 degrees glide path)2-light PAPI on left (4.00 degrees glide path)
Runway end identifier lights: nono
Touchdown point: yes, no lightsyes, no lights
Obstructions: 58 ft. trees, 1454 ft. from runway, 74 ft. right of centerline, 21:1 slope to clear60 ft. trees, 646 ft. from runway, 209 ft. left of centerline, 7:1 slope to clear
APCH RATIO 12:1 TO DSPLCD THLD.

Airport Ownership and Management from official FAA records

Ownership: Publicly-owned
Owner: MONTGOMERY COUNTY
PO BOX 425
TROY, NC 27371
Phone 910-576-4221
Manager: KEVIN MCNEILL
PO BOX 425
TROY, NC 27371
Phone (910) 220-1218
MGR PHONE 910-220-1218.

Airport Operational Statistics

Aircraft based on the field: 13
Single engine airplanes: 10
Multi engine airplanes: 3
    
Aircraft operations: avg 92/week *
42% military
31% transient general aviation
27% local general aviation
* for 12-month period ending 04 July 2016

Additional Remarks

DEER OCCASIONALLY ON RY.
40 FT PLINE 350-750 FT FM THLD RY 21 ACROSS & L OF CNTRLN.
20-25 FT DEPRESSION 180 FT S OF RY 03 THLD ON CNTRLN.
RY 03 HAS UPHILL GRADE.
35-40 FT DROP-OFF 80 FT W OF RY 03 CNTRLN AND 30 FT DROP-OFF 300 FT FM RY 21 THLD ON CNTRLN AND 30 FT DROP-OFF 80 FT R OF RY 21 CNTRLN.

Instrument Procedures

NOTE: All procedures below are presented as PDF files. If you need a reader for these files, you should download the free Adobe Reader.

NOT FOR NAVIGATION. Please procure official charts for flight.
FAA instrument procedures published for use from 11 October 2018 at 0901Z to 8 November 2018 at 0900Z.

 
IAPs - Instrument Approach Procedures
RNAV (GPS) RWY 03   download (169KB)
RNAV (GPS) RWY 21   download (189KB)
NOTE: Special Take-Off Minimums/Departure Procedures apply   download

Other nearby airports with instrument procedures:

KHBI - Asheboro Regional Airport (17 nm N)
KVUJ - Stanly County Airport (18 nm W)
KSOP - Moore County Airport (22 nm SE)
KSCR - Siler City Municipal Airport (24 nm NE)
KHFF - Mackall Army Airfield (25 nm SE)
 
Loc | Ops | Rwys | IFR | FBO | Links
Com | Nav | Svcs | Stats | Notes


 
Area around 43A (Montgomery County Airport)
 
Road maps at: MapQuest Bing Google
 
Aerial photo
WARNING: Photo may not be current or correct
Aerial photo of 43A (Montgomery County Airport)
Photo courtesy of AirNav, LLC
Photo taken 09-Aug-2010
looking South.

Do you have a better or more recent aerial photo of Montgomery County Airport that you would like to share? If so, please send us your photo.

 
Sectional chart

 
Airport distance calculator
Flying to Montgomery County Airport? Find the distance to fly.

From to 43A

Sunrise and sunset
Times for 15-Oct-2018
 Local
(UTC-4)
 Zulu
(UTC)
Morning civil twilight07:0111:01
Sunrise07:2611:26
Sunset18:4422:44
Evening civil twilight19:0923:09

Current date and time
Zulu (UTC)  15-Oct-2018 16:44:41
Local (UTC-4)  15-Oct-2018 12:44:41
 
METAR
KHBI 
17nm N 
151635Z AUTO 21007KT 10SM BKN019 OVC024 23/19 A3020 RMK AO2 T02290186
KVUJ 
18nm W 
151615Z AUTO 18006KT 10SM BKN020 BKN026 25/20 A3023 RMK AO2 T02450197
KSOP 
22nm SE 
151556Z AUTO 21008KT 10SM FEW021 BKN050 25/21 A3020 RMK AO2 SLP239 T02500206
KSCR 
24nm NE 
151550Z AUTO 20006KT 10SM CLR 22/19 A3019 RMK AO2 T02240185
KAFP 
26nm SW 
151620Z AUTO 22003KT 10SM SCT026 25/19 A3018 RMK AO2 T02490193
KHFF 
26nm SE 
151616Z AUTO 23007KT 10SM BKN022 26/20 A3018 RMK AO2 CIG 022V050 BKN V SCT SLP233 $
KRCZ 
30nm S 
151620Z AUTO 23008KT 10SM SCT025 SCT035 BKN060 25/21 A3018 RMK AO2 T02530212
TAF
KPOB 
40nm E 
151600Z 1516/1615 23007KT 9999 SCT035 BKN070 QNH3009INS TEMPO 1518/1522 8000 -RA BKN025 BECMG 1522/1523 20006KT 9999 SCT020 BKN040 QNH3006INS BECMG 1610/1611 VRB03KT 3200 BR VCSH SCT010 BKN015 QNH3009INS TX28/1518Z TN21/1611Z
KGSO 
44nm N 
151233Z 1513/1612 VRB03KT 1/4SM FG OVC001 TEMPO 1513/1514 1SM BR OVC002 FM151500 22005KT P6SM FEW035 SCT100 FM160800 34002KT P6SM OVC050 FM161000 03002KT P6SM OVC015
KFBG 
46nm E 
151600Z 1516/1615 23007KT 9999 SCT035 BKN070 QNH3009INS TEMPO 1518/1522 8000 -RA BKN025 BECMG 1522/1523 20006KT 9999 SCT020 BKN040 QNH3006INS BECMG 1610/1611 VRB03KT 3200 BR VCSH SCT010 BKN015 QNH3009INS TX28/1518Z TN21/1611Z
KINT 
49nm NW 
151131Z 1512/1612 VRB03KT P6SM BKN007 TEMPO 1512/1514 3SM BR OVC005 FM151500 22005KT P6SM FEW035 SCT100 FM160800 34002KT P6SM OVC050 FM161000 03002KT P6SM OVC015
NOTAMs
Click for the latest NOTAMs
NOTAMs are issued by the DoD/FAA and will open in a separate window not controlled by AirNav.

 

 
 

Would you like to see your business listed on this page?

 If your business provides an interesting product or service to pilots, flight crews, aircraft, or users of the Montgomery County Airport, you should consider listing it here.  To start the listing process, click on the button below
 
Add a business
 

Other Pages about Montgomery County Airport

Update a link
 
Copyright © AirNav, LLC. All rights reserved. Privacy Policy  Contact